ARIRANG-2 (KOMPSAT-2)

Last updated on Mon Jun 22 2026 00:02:51 GMT+0000 (Coordinated Universal Time)

1 29268U 06031A 26172.53289414 .00000161 00000+0 38659-4 0 9993 2 29268 97.8312 356.7686 0015793 62.1883 22.3025 14.64662141 62112
UTC large
Height (km)
Speed (km/s)
/
Latitude / Longitude
Inclination (degrees)
Orbital Period (minutes)
Azimuth
Elevation
Range (km)
Doppler Factor

Next 0 passes for location: London (51.5072 / 0.1276)

No passes found over London.
ARIRANG-2 (KOMPSAT-2)